Date String (YYYY-MM-DD hh:mm:ss) UTC,Instrument flags,absolute air pressure of the measurement (hPa),sample flow rate (lpm),inlet stack bypass flow (lpm),air temperature of the measurement (°C),ambient temperature measured by the external sensor (°C),aerosol sample conditioner tube jacket temperature (°C),OPC LED temperature (°C),internal box temperature (°C),relative humidity of the measurement (%),span deviation,mass concentration of particles derived from Lorenz-Mie calculation of OPC scattering (μg/m³),mass concentration of particles derived from Lorenz-Mie calculation of OPC scattering (μg/m³),mass concentration of particles derived from Lorenz-Mie calculation of OPC scattering (μg/m³)
DateTimeUTC,F1_M11,P_M11,Q1_M11,Q2_M11,T1_M11,T2_M11,T3_M11,T4_M11,T5_M11,U1_M11,ZSPAN_M11,X2_M11,X0_M11,X1_M11
2024-04-22 13:00:00,SystemResetWarning,0824.6,5.00,000.00,024.1,023.3,000.0,032.5,025.9,013.9,0000.0,0002.55,0006.96,0001.65
2024-04-22 13:01:00,SystemResetWarning,0824.7,5.00,000.00,024.1,023.3,000.0,032.5,025.9,013.7,0000.0,0002.52,0006.79,0001.64
2024-04-22 13:02:00,SystemResetWarning,0824.6,5.00,000.00,024.1,023.3,000.0,032.5,025.9,014.3,0000.0,0002.53,0006.84,0001.64
2024-04-22 13:03:00,SystemResetWarning,0824.6,4.99,000.00,024.1,023.3,000.0,032.5,025.9,014.2,0000.0,0002.58,0007.23,0001.64
2024-04-22 13:04:00,SystemResetWarning,0824.7,5.00,000.00,024.1,023.3,000.0,032.5,025.9,014.1,0000.0,0002.54,0007.71,0001.63
2024-04-22 13:05:00,SystemResetWarning,0824.6,5.00,000.00,024.1,023.3,000.0,032.5,025.9,013.7,0000.0,0002.48,0007.51,0001.62
2024-04-22 13:06:00,SystemResetWarning,0824.6,5.00,000.00,024.1,023.3,000.0,032.5,025.9,013.1,0000.0,0002.50,0007.90,0001.62
2024-04-22 13:07:00,SystemResetWarning,0824.7,5.00,000.00,024.1,023.3,000.0,032.5,025.9,013.3,0000.0,0002.50,0008.13,0001.61
2024-04-22 13:08:00,SystemResetWarning,0824.6,5.00,000.00,024.1,023.3,000.0,032.5,025.9,012.9,0000.0,0002.50,0008.13,0001.64
2024-04-22 13:09:00,SystemResetWarning,0824.4,5.00,000.00,024.1,023.3,000.0,032.5,025.9,012.5,0000.0,0002.42,0007.75,0001.64
2024-04-22 13:10:00,SystemResetWarning,0824.5,5.01,000.00,024.1,023.3,000.0,032.5,025.9,012.5,0000.0,0002.41,0007.41,0001.64
2024-04-22 13:11:00,SystemResetWarning,0824.5,5.00,000.00,024.1,023.3,000.0,032.5,025.9,012.8,0000.0,0002.40,0007.46,0001.63
2024-04-22 13:12:00,SystemResetWarning,0824.6,5.00,000.00,024.1,023.3,000.0,032.5,025.9,012.2,0000.0,0002.40,0008.63,0001.64
2024-04-22 13:13:00,SystemResetWarning,0824.5,5.00,000.00,024.1,023.3,000.0,032.5,025.9,012.0,0000.0,0002.37,0008.57,0001.63
2024-04-22 13:14:00,SystemResetWarning,0824.5,4.99,000.00,024.1,023.3,000.0,032.5,025.9,012.1,0000.0,0002.36,0008.56,0001.63
2024-04-22 13:15:00,SystemResetWarning,0824.6,4.99,000.00,024.1,023.3,000.0,032.5,025.9,012.3,0000.0,0002.38,0007.98,0001.63
2024-04-22 13:16:00,SystemResetWarning,0824.5,5.00,000.00,024.1,023.3,000.0,032.5,025.9,013.0,0000.0,0002.38,0007.87,0001.64
2024-04-22 13:17:00,SystemResetWarning,0824.6,5.02,000.00,024.1,023.3,000.0,032.5,025.9,012.6,0000.0,0002.31,0007.25,0001.64
2024-04-22 13:18:00,SystemResetWarning,0824.7,5.01,000.00,024.1,023.3,000.0,032.5,025.9,012.2,0000.0,0002.35,0007.15,0001.66
2024-04-22 13:19:00,SystemResetWarning,0824.7,5.00,000.00,024.1,023.3,000.0,032.5,025.9,012.6,0000.0,0002.36,0007.12,0001.65
2024-04-22 13:20:00,SystemResetWarning,0824.7,4.99,000.00,024.1,023.3,000.0,032.5,025.9,013.2,0000.0,0002.37,0008.33,0001.66
2024-04-22 13:21:00,SystemResetWarning,0824.7,4.99,000.00,024.1,023.3,000.0,032.5,025.9,012.8,0000.0,0002.42,0008.91,0001.68
2024-04-22 13:22:00,SystemResetWarning,0824.7,5.00,000.00,024.1,023.3,000.0,032.6,025.9,012.6,0000.0,0002.50,0009.03,0001.69
2024-04-22 13:23:00,SystemResetWarning,0824.7,5.01,000.00,024.1,023.3,000.0,032.6,025.9,012.7,0000.0,0002.54,0008.02,0001.69
2024-04-22 13:24:00,SystemResetWarning,0824.7,5.01,000.00,024.1,023.3,000.0,032.6,025.9,012.9,0000.0,0002.60,0007.96,0001.70
2024-04-22 13:25:00,SystemResetWarning,0824.7,5.00,000.00,024.1,023.3,000.0,032.6,025.9,013.5,0000.0,0002.65,0008.04,0001.69
2024-04-22 13:26:00,SystemResetWarning,0824.7,5.00,000.00,024.1,023.3,000.0,032.6,025.9,013.1,0000.0,0002.60,0007.53,0001.69
2024-04-22 13:27:00,SystemResetWarning,0824.7,4.99,000.00,024.1,023.4,000.0,032.6,026.0,013.3,0000.0,0002.63,0007.55,0001.69
2024-04-22 13:28:00,SystemResetWarning,0824.7,5.00,000.00,024.2,023.4,000.0,032.6,026.0,012.9,0000.0,0002.74,0007.74,0001.69
2024-04-22 13:29:00,SystemResetWarning,0824.7,4.99,000.00,024.2,023.4,000.0,032.6,026.0,012.8,0000.0,0002.77,0007.65,0001.69
2024-04-22 13:30:00,SystemResetWarning,0824.7,5.00,000.00,024.2,023.4,000.0,032.6,026.0,013.0,0000.0,0002.77,0008.17,0001.69
2024-04-22 13:31:00,SystemResetWarning,0824.7,5.00,000.00,024.2,023.4,000.0,032.6,026.0,014.2,0000.0,0002.76,0007.50,0001.69
2024-04-22 13:32:00,SystemResetWarning,0824.7,5.00,000.00,024.2,023.4,000.0,032.6,026.0,014.4,0000.0,0002.76,0006.56,0001.69
2024-04-22 13:33:00,SystemResetWarning,0824.7,5.00,000.00,024.2,023.4,000.0,032.6,026.0,013.6,0000.0,0002.72,0006.68,0001.68
2024-04-22 13:34:00,SystemResetWarning,0824.7,5.00,000.00,024.2,023.4,000.0,032.6,026.0,013.8,0000.0,0002.71,0006.75,0001.68
2024-04-22 13:35:00,SystemResetWarning,0824.7,5.02,000.00,024.2,023.4,000.0,032.6,026.0,013.8,0000.0,0002.67,0006.64,0001.68
2024-04-22 13:36:00,SystemResetWarning,0824.7,5.00,000.00,024.2,023.4,000.0,032.6,026.0,013.5,0000.0,0002.59,0006.44,0001.68
2024-04-22 13:37:00,SystemResetWarning,0824.7,4.99,000.00,024.2,023.4,000.0,032.7,026.0,013.6,0000.0,0002.57,0006.43,0001.68
2024-04-22 13:38:00,SystemResetWarning,0824.7,4.99,000.00,024.2,023.4,000.0,032.7,026.0,013.6,0000.0,0002.52,0006.31,0001.68
2024-04-22 13:39:00,SystemResetWarning,0824.7,5.00,000.00,024.2,023.4,000.0,032.7,026.0,013.6,0000.0,0002.45,0006.05,0001.66
2024-04-22 13:40:00,SystemResetWarning,0824.7,4.99,000.00,024.2,023.4,000.0,032.7,026.0,013.7,0000.0,0002.38,0007.48,0001.65
2024-04-22 13:41:00,SystemResetWarning,0824.7,5.00,000.00,024.2,023.4,000.0,032.7,026.0,013.3,0000.0,0002.37,0007.34,0001.65
2024-04-22 13:42:00,SystemResetWarning,0824.7,5.01,000.00,024.2,023.4,000.0,032.7,026.0,012.8,0000.0,0002.37,0006.94,0001.65
2024-04-22 13:43:00,SystemResetWarning,0824.7,5.01,000.00,024.2,023.4,000.0,032.7,026.1,012.9,0000.0,0002.41,0007.09,0001.63
2024-04-22 13:44:00,SystemResetWarning,0824.6,5.00,000.00,024.2,023.4,000.0,032.7,026.0,013.6,0000.0,0002.39,0007.56,0001.63
2024-04-22 13:45:00,SystemResetWarning,0824.4,4.99,000.00,024.2,023.5,000.0,032.7,026.0,013.9,0000.0,0002.43,0007.86,0001.62
2024-04-22 13:46:00,SystemResetWarning,0824.4,4.99,000.00,024.3,023.5,000.0,032.7,026.1,013.0,0000.0,0002.45,0008.18,0001.61
2024-04-22 13:47:00,SystemResetWarning,0824.6,5.00,000.00,024.3,023.5,000.0,032.7,026.1,014.8,0000.0,0002.49,0008.68,0001.61
2024-04-22 13:48:00,SystemResetWarning,0824.7,5.00,000.00,024.3,023.5,000.0,032.7,026.1,016.3,0000.0,0002.51,0009.20,0001.61
2024-04-22 13:49:00,SystemResetWarning,0824.7,5.00,000.00,024.3,023.5,000.0,032.7,026.1,017.2,0000.0,0002.54,0009.25,0001.61
2024-04-22 13:50:00,SystemResetWarning,0824.7,5.00,000.00,024.3,023.5,000.0,032.7,026.1,015.7,0000.0,0002.50,0009.19,0001.61
2024-04-22 13:51:00,SystemResetWarning,0824.7,5.01,000.00,024.3,023.5,000.0,032.7,026.1,014.0,0000.0,0002.49,0008.07,0001.62
2024-04-22 13:52:00,SystemResetWarning,0824.7,5.00,000.00,024.3,023.5,000.0,032.7,026.1,013.7,0000.0,0002.48,0007.89,0001.62
2024-04-22 13:53:00,SystemResetWarning,0824.9,5.01,000.00,024.3,023.5,000.0,032.7,026.1,014.7,0000.0,0002.49,0008.15,0001.62
2024-04-22 13:54:00,SystemResetWarning,0824.9,5.00,000.00,024.3,023.5,000.0,032.7,026.1,015.8,0000.0,0002.44,0008.09,0001.62
2024-04-22 13:55:00,SystemResetWarning,0824.9,5.00,000.00,024.3,023.5,000.0,032.7,026.1,016.2,0000.0,0002.40,0007.51,0001.62
2024-04-22 13:56:00,SystemResetWarning,0824.9,5.00,000.00,024.3,023.5,000.0,032.8,026.1,014.9,0000.0,0002.33,0006.98,0001.63
2024-04-22 13:57:00,SystemResetWarning,0824.9,4.99,000.00,024.3,023.5,000.0,032.8,026.1,014.6,0000.0,0002.32,0006.78,0001.65
2024-04-22 13:58:00,SystemResetWarning,0824.9,5.00,000.00,024.3,023.5,000.0,032.8,026.1,014.3,0000.0,0002.35,0006.18,0001.67
2024-04-22 13:59:00,SystemResetWarning,0824.8,5.01,000.00,024.3,023.5,000.0,032.8,026.1,015.3,0000.0,0002.37,0005.23,0001.67
